CZ-6A DEB, 58431

Orbit data source: Space-Track

CZ-6A DEB, 58431 is space debris in SSO originally from a launch on Fri, 11 Nov 2022 UTC launched from the Taiyaun Space Center, China (TSC). Debris objects in space refer to the collection of defunct objects orbiting the Earth. Examples of debris include non-operational satellites, rocket bodies, and fragments generated from explosions, collisions, or faulty payload assembly.

Loading next visibility...
Identifier
58431, 2022-151AHZ
Orbit
SSO
Country
Flag of CNCN / PRC
Related business
Manufacturer
SAST
Mission
Spacecraft
Bus & Motor
Unknown
Mass
Unknown
Launch date (UTC)
2022-11-11 (4 years ago)
Launch vehicle
Unknown
Launch site
Taiyaun Space Center, China (TSC)
Object type
Payload
Rocket body
Debris
Shape & HBR
Unknown shape, 0.1 m
Radar Cross Section
Small (<0.1 m²)

Expand to show TLE details & history
Last TLE update: 3 days ago

TLE from 3 days ago
0 CZ-6A DEB
1 58431U 22151AHZ 26170.29095931  .00003093  00000-0  13619-2 0  9993
2 58431  98.8313 181.6811 0046881 316.9635  42.7880 14.23580486167072
Epoch: 2026-06-19T06:58Z
TLE epoch observation values (Epoch: 2026-06-19T06:58:58.884Z)
Latitude
-0.00007°
Longitude
169.41371°
Altitude
791.511 km
Speed
7.471 km/s
True Right ascension
12h 06m 43s
True Declination
0° 00' 00"
Sunlit
Object was in daylight at epoch
Visualization orbit readout
Latitude
Unknown
Longitude
Unknown
Altitude
Unknown
Speed
Unknown
Apparent Right ascension
Unknown
Apparent Declination
Unknown
Sunlit
N/A
Visualization observer readout
Local Sidereal Time
21:55:09
Azimuth
Unknown
Elevation
Unknown
Doppler factor
Unknown
Orbital elements
Apogee altitude
844.13 km
Perigee altitude
776.728 km
Semi-major axis
7,188.566 km
Eccentricity
0.00469
Inclination
98.8313°
RAAN
181.6811°
Arg. of periapsis
316.9635°
True anomaly
43.1545°
Mean anomaly
42.788°
Eccentric anomaly
42.97109°
Mean motion
3.56106 °/min
Orbital period
101.09 mins
BSTAR
0.0013619
Loading maneuver chart data...
Computing Atmospheric mass density...
Loading historical data...
Loading historical data...
Loading historical data...
Loading historical data...
Loading historical data...
Loading historical data...
Loading historical data...

Documentation

Showing up to 5 results
|